DateTimeUTC,F1_A11,F1_S11,BsB_S11,BsG_S11,BsR_S11,BbsB_S11,BbsG_S11,BbsR_S11,BaB_A11,BaG_A11,BaR_A11,Tu_S11,T_S11,Uu_S11,U_S11,P_S11,T1_A11
2021-12-07T18:00:00Z,00000200,21000000,,,,,,,0000.35,-000.11,0000.10,20.6,27.2,,00.0,0637.0,31.2
2021-12-07T18:01:00Z,00000200,21000000,,,,,,,0000.36,0000.37,0000.04,20.6,27.3,,00.0,0637.0,31.2
2021-12-07T18:02:00Z,00000200,21000000,,,,,,,-000.09,-000.02,-000.16,20.6,27.3,,00.0,0637.0,31.2
2021-12-07T18:03:00Z,00000200,61000000,,,,,,,-000.06,0000.26,0000.05,20.6,27.3,,00.0,0637.0,31.1
2021-12-07T18:04:00Z,00000200,41000000,0000.48,0000.04,0000.25,-000.84,0000.38,-000.43,0000.03,-000.24,0000.07,20.6,27.1,,00.0,0637.8,31.1
2021-12-07T18:05:00Z,00000200,01000000,0000.24,-000.01,0000.06,0000.22,-000.01,0000.12,0000.28,0000.14,0000.27,20.5,27.0,,00.0,0637.9,31.1
2021-12-07T18:06:00Z,00000200,01000000,-000.19,-000.09,0000.08,0000.23,0000.17,0000.02,0000.16,0000.11,-000.14,20.5,27.0,,00.0,0637.9,31.1
2021-12-07T18:07:00Z,00000200,01000000,0000.72,-000.08,0000.36,-000.41,0000.11,-000.05,0000.12,-000.18,0000.21,20.5,27.0,,00.0,0637.9,31.1
2021-12-07T18:08:00Z,00000200,01000000,-000.06,0000.08,0000.37,-000.24,0000.27,-000.17,0000.12,0000.21,-000.29,20.5,27.0,,00.0,0637.9,31.1
2021-12-07T18:09:00Z,00000200,01000000,-000.32,-000.02,0000.04,-000.35,0000.46,0000.06,-000.01,0000.14,0000.78,20.5,27.0,,00.0,0637.9,31.1
2021-12-07T18:10:00Z,00000200,01000000,-000.06,0000.13,0000.22,-000.25,-000.15,-000.28,-000.17,0000.03,-000.15,20.6,27.0,,00.0,0637.9,31.1
2021-12-07T18:11:00Z,00000200,01000000,0000.28,-000.10,0000.25,-000.49,-000.02,0000.16,0000.46,0000.46,0000.55,20.6,27.0,,00.0,0637.9,31.1
2021-12-07T18:12:00Z,00000200,01000000,0000.02,0000.31,0000.30,0000.21,0000.61,0000.14,-000.13,-000.28,-000.49,20.7,27.0,,00.0,0637.9,31.1
2021-12-07T18:13:00Z,00000200,01000000,0000.66,0000.15,0000.12,0000.64,0000.00,0000.29,0000.27,0000.23,-000.19,20.7,27.0,,00.0,0637.9,31.2
2021-12-07T18:14:00Z,00000200,01000000,0000.27,-000.02,0000.21,0000.10,0000.15,0000.10,0000.07,0000.31,0000.35,20.7,27.0,,00.0,0637.9,31.2
2021-12-07T18:15:00Z,00000200,01000000,0000.92,-000.04,0000.02,-000.29,0000.29,-000.02,0000.04,-000.15,-000.00,20.7,27.0,,00.0,0637.9,31.2
2021-12-07T18:16:00Z,00000200,01000000,0000.32,-000.24,-000.03,-000.82,0000.04,-000.00,0000.26,0000.04,0000.20,20.7,27.0,,00.0,0637.9,31.1
2021-12-07T18:17:00Z,00000200,01000000,-000.47,0000.34,0000.05,-000.09,0000.15,-000.23,0000.09,0000.01,-000.10,20.6,27.0,,00.0,0637.9,31.1
2021-12-07T18:18:00Z,00000200,01000000,0000.12,-000.15,0000.43,-000.21,-000.19,0000.19,0000.12,0000.19,0000.09,20.5,27.0,,00.0,0637.9,31.1
2021-12-07T18:19:00Z,00000200,01000000,0000.02,0000.53,-000.11,-000.52,0000.70,-000.28,0000.08,-000.15,-000.20,20.4,26.9,,00.0,0637.9,31.1
2021-12-07T18:20:00Z,00000200,01000000,-000.28,0000.27,0000.00,-000.45,0000.03,-000.03,-000.32,0000.17,0000.07,20.4,26.9,,00.0,0637.8,31.1
2021-12-07T18:21:00Z,00000200,01000000,0000.82,0000.17,0000.32,-000.68,0000.38,-000.11,0000.41,0000.26,-000.08,20.3,26.9,,00.0,0637.8,31.1
2021-12-07T18:22:00Z,00000200,01000000,0000.44,-000.27,0000.24,0000.09,0000.16,0000.23,0000.03,0000.00,0000.08,20.3,26.8,,00.0,0637.8,31.1
2021-12-07T18:23:00Z,00000200,01000000,-000.05,-000.00,-000.06,-000.07,0000.19,-000.40,-000.08,-000.16,0000.25,20.3,26.8,,00.0,0637.7,31.1
2021-12-07T18:24:00Z,00000200,01000000,0000.25,0000.31,0000.28,-000.57,0000.37,0000.04,-000.04,0000.13,-000.03,20.4,26.8,,00.0,0637.7,31.1
2021-12-07T18:25:00Z,00000200,01000000,0000.54,0000.22,0000.29,-000.38,0000.34,-000.11,-000.04,-000.08,-000.10,20.4,26.9,,00.0,0637.7,31.1
2021-12-07T18:26:00Z,00000200,01000000,-000.27,0000.18,0000.04,0000.29,0000.31,-000.13,0000.50,0000.34,0000.25,20.5,26.9,,00.0,0637.7,31.1
2021-12-07T18:27:00Z,00000200,01000000,-000.04,0000.36,0000.29,0000.44,0000.35,-000.15,0000.16,0000.30,0000.08,20.5,26.9,,00.0,0637.7,31.1
2021-12-07T18:28:00Z,00000200,01000000,0000.80,0000.19,-000.12,0000.11,0000.14,0000.03,-000.15,-000.08,0000.08,20.5,26.9,,00.0,0637.7,31.2
2021-12-07T18:29:00Z,00000200,01000000,0000.20,0000.10,-000.21,0000.55,-000.24,-000.50,0000.04,0000.14,0000.06,20.6,26.9,,00.0,0637.7,31.2
2021-12-07T18:30:00Z,00000200,01000000,0000.21,-000.19,0000.12,-000.21,-000.00,-000.22,0000.21,0000.07,0000.20,20.6,26.9,,00.0,0637.7,31.2
2021-12-07T18:31:00Z,00000200,01000000,0000.78,0000.23,0000.18,-000.86,0000.58,0000.06,-000.08,-000.10,0000.10,20.7,26.9,,00.0,0637.7,31.2
2021-12-07T18:32:00Z,00000200,01000000,0000.09,0000.52,0000.30,-000.35,0000.20,-000.09,0000.12,0000.33,-000.32,20.7,27.0,,00.0,0637.8,31.2
2021-12-07T18:33:00Z,00000200,01000000,0000.29,-000.04,-000.25,-000.21,0000.28,-000.26,0000.08,0000.05,0000.16,20.7,27.0,,00.0,0637.8,31.2
2021-12-07T18:34:00Z,00000200,01010000,-000.12,-000.11,0000.49,-000.26,0000.07,0000.22,-000.03,0000.29,0000.15,20.7,27.0,,00.0,0637.8,31.2
2021-12-07T18:35:00Z,00000200,01010000,0000.23,0000.33,0000.64,0000.24,0000.31,-000.19,-000.04,-000.37,-000.01,20.7,27.0,,00.0,0637.8,31.2
2021-12-07T18:36:00Z,00000200,01000000,0000.70,-000.01,0000.24,-000.26,0000.03,-000.15,0000.07,-000.39,-000.24,20.6,27.0,,00.0,0637.9,31.2
2021-12-07T18:37:00Z,00000200,01000000,0000.06,-000.01,-000.12,-000.19,0000.36,-000.39,-000.05,0000.08,0000.13,20.6,27.0,,00.0,0637.9,31.1
2021-12-07T18:38:00Z,00000200,01000000,0000.14,0000.06,0000.05,-000.44,-000.06,-000.18,0000.03,0000.15,0000.03,20.6,26.9,,00.0,0637.9,31.1
2021-12-07T18:39:00Z,00000200,01000000,0000.06,0000.06,0000.29,-000.22,-000.08,0000.16,0000.34,-000.08,-000.12,20.6,26.9,,00.0,0637.9,31.2
2021-12-07T18:40:00Z,00000200,01000000,-000.01,0000.01,0000.61,-000.44,0000.21,-000.01,-000.26,-000.00,0000.00,20.7,27.0,,00.0,0637.9,31.2
2021-12-07T18:41:00Z,00000200,01000000,0000.35,0000.33,0000.29,-000.39,0000.31,0000.16,0000.10,0000.36,0000.19,20.7,27.0,,00.0,0638.0,31.2
2021-12-07T18:42:00Z,00000200,01000000,-000.33,0000.39,0000.09,-000.10,-000.04,-000.36,-000.34,-000.31,-000.14,20.8,27.0,,00.0,0638.0,31.2
2021-12-07T18:43:00Z,00000200,01000000,-000.09,-000.19,0000.11,-000.57,0000.10,0000.26,0000.26,-000.10,0000.11,20.8,27.0,,00.0,0638.1,31.2
2021-12-07T18:44:00Z,00000200,01000000,-000.39,0000.08,0000.20,-000.06,0000.36,0000.07,-000.24,-000.17,-000.58,20.9,27.1,,00.0,0638.1,31.2
2021-12-07T18:45:00Z,00000200,01000000,0000.12,-000.11,0000.30,-000.07,0000.15,0000.11,0000.06,0000.30,0000.54,20.9,27.1,,00.0,0638.1,31.2
2021-12-07T18:46:00Z,00000200,01000000,0000.29,0000.09,0000.03,-000.04,0000.08,-000.15,-000.29,0000.19,-000.21,20.9,27.1,,00.0,0638.2,31.2
2021-12-07T18:47:00Z,00000200,01000000,0000.29,-000.28,-000.10,-000.59,-000.13,-000.12,0000.02,-000.32,0000.07,21.0,27.1,,00.0,0638.3,31.2
2021-12-07T18:48:00Z,00000200,01000000,0000.44,-000.06,0000.34,-000.56,0000.14,-000.19,0000.00,-000.35,0000.05,21.0,27.1,,00.0,0638.3,31.2
2021-12-07T18:49:00Z,00000200,01000000,-000.08,0000.08,0000.07,-000.37,0000.06,-000.08,0000.15,0000.13,-000.25,21.0,27.2,,00.0,0638.3,31.2
2021-12-07T18:50:00Z,00000200,01000000,0000.15,0000.04,-000.15,-000.48,-000.03,0000.09,-000.29,-000.31,0000.18,21.1,27.2,,00.0,0638.3,31.2
2021-12-07T18:51:00Z,00000200,01000000,0000.03,0000.05,0000.29,0000.07,-000.12,0000.14,-000.03,0000.05,-000.14,21.0,27.2,,00.0,0638.3,31.2
2021-12-07T18:52:00Z,00000200,01000000,-000.31,0000.31,0000.18,0000.29,0000.25,-000.24,-000.28,-000.03,-000.20,21.0,27.2,,00.0,0638.4,31.2
2021-12-07T18:53:00Z,00000200,01000000,0000.16,-000.04,0000.25,0000.28,-000.04,-000.20,0000.02,-000.02,-000.18,21.0,27.2,,00.0,0638.4,31.2
2021-12-07T18:54:00Z,00000200,01000000,0000.56,-000.22,0000.43,0000.18,0000.34,0000.31,-000.14,-000.14,0000.40,21.1,27.2,,00.0,0638.4,31.2
2021-12-07T18:55:00Z,00000200,01000000,0000.40,0000.05,-000.09,0000.20,0000.27,-000.01,0000.09,0000.40,-000.03,21.1,27.2,,00.0,0638.4,31.2
2021-12-07T18:56:00Z,00000200,01000000,0000.52,0000.23,0000.32,-000.24,0000.41,0000.04,0000.08,-000.08,-000.30,21.1,27.3,,00.0,0638.5,31.2
2021-12-07T18:57:00Z,00000200,41000000,,,,,,,0000.34,0000.21,0000.61,21.2,27.3,,00.0,0638.4,31.2
2021-12-07T18:58:00Z,00000200,61000000,,,,,,,-000.34,-000.18,-000.39,21.0,27.4,,00.0,0637.6,31.2
2021-12-07T18:59:00Z,00000200,21000000,,,,,,,0000.07,-000.15,0000.07,21.0,27.5,,00.0,0637.6,31.2
